Weather Service Report


790 
ASUS46 KLOX 240603
RWRCA 

SOUTHERN CALIFORNIA WEATHER ROUNDUP
NATIONAL WEATHER SERVICE OXNARD CALIFORNIA
1100 PM PDT TUE MAY 23 2017

NOTE: "FAIR" INDICATES FEW OR NO CLOUDS BELOW 12,000 FEET WITH NO 
SIGNIFICANT WEATHER AND/OR OBSTRUCTIONS TO VISIBILITY.

  -  STATIONS PRECEEDED BY AN ASTERISK (*) ARE NOT NWS OR FAA 
     STATIONS AND ARE NOT SUBJECT TO NWS AND FAA QUALITY CONTROL.

CAZ041-042-087-240700-
LA AND ORANGE COUNTY COASTAL AREAS

  
CITY           SKY/WX    TMP DP  RH WIND       PRES   REMARKS
L.A. DOWNTOWN  CLEAR     60  56  86 W3        29.92S                  
L.A. AIRPORT   PTCLDY    59  56  89 SW6       29.92F                  
LONG BEACH     CLEAR     62  55  77 NW5       29.93R                  

CITY           SKY/WX    TMP DP  RH WIND       PRES   REMARKS
FULLERTON      CLEAR     64  57  78 CALM      29.92R                  
*GETTY CENTER    N/A     55  54  94 NE3         N/A                   
HAWTHORNE      CLEAR     60  56  86 VRB6      29.92F                  
*LEO CARRILLO    N/A     57  55  92 NW5         N/A                   
*REDONDO BEACH   N/A     59  54  85 W1        29.92S                  
SANTA ANA      PTCLDY    61  58  90 SW3       29.93S                  
STA MONICA APT CLOUDY    59  56  89 S5        29.93R                  
*UCLA            N/A     59  54  82 CALM      29.90S                  

$$

CAZ547-548-048-240700-
LA COUNTY VALLEYS AND INLAND EMPIRE

  
CITY           SKY/WX    TMP DP  RH WIND       PRES   REMARKS
BURBANK        CLEAR     63  55  75 E6        29.91S                  
VAN NUYS       CLEAR     66  56  70 NE3       29.92R                  

CITY           SKY/WX    TMP DP  RH WIND       PRES   REMARKS
CORONA AIRPORT CLEAR     64  56  75 W3        29.92                   
*CHATSWORTH      N/A     68  55  64 CALM      29.88R                  
CHINO          CLEAR     65  55  70 W8        29.93R                  
*CLAREMONT       N/A     63  50  62 CALM        N/A                   
MARCH AFB      CLEAR     67  41  39 W3        29.93S                  
*NORTHRIDGE      N/A     66  52  59 NE2         N/A                   
ONTARIO        CLEAR     70  53  54 W8        29.92R                  
*PASADENA        N/A     66  57  72 E1          N/A                   
RIVERSIDE      CLEAR     69  54  58 SW8       29.92R                  
SAN BERNARDINO FAIR      75  49  40 W3        29.93R                  
*SAN RAFAEL HI   N/A     62  53  72 E7          N/A                   
*SAUGUS          N/A     69  49  47 W2          N/A                   
*WHITEMAN AP   NOT AVBL                                               
*WHITTIER HILL   N/A     58  56  94 CALM        N/A                   
*WOODLAND HILL   N/A     64  54  68 E2          N/A                   

$$

CAZ054-055-240700-
LA AND SAN BERNARDINO COUNTY MOUNTAINS

  
CITY           SKY/WX    TMP DP  RH WIND       PRES   REMARKS
*ACTON           N/A     67  42  39 CALM        N/A                   
*BIG BEAR AIRP CLEAR     54  23  30 CALM      30.23F                  
*BIG PINES       N/A     63  10  12 CALM        N/A                   
*CHILAO          N/A     69  -1   6 CALM        N/A                   
SANDBERG       CLEAR     74  35  24 NW16      30.10F                  
*WARM SPRINGS    N/A     70  36  29 SW9         N/A                   

$$

CAZ028-029-059-060-099-240700-
ANTELOPE VALLEY AND SURROUNDING AREAS

  
CITY           SKY/WX    TMP DP  RH WIND       PRES   REMARKS
LANCASTER      CLEAR     76  33  21 SW10      29.94S                  
PALMDALE       CLEAR     76  30  18 SW12      29.96R                  
*POPPY PARK      N/A     75  30  19 SW13        N/A                   

CITY           SKY/WX    TMP DP  RH WIND       PRES   REMARKS
29 PALMS       CLEAR     86  29  12 W5        29.94R                  
BARSTOW/DAGGET CLEAR     84  30  14 W14       29.88R                  
BISHOP         CLEAR     70  39  32 N13       29.99S                  
CHINA LAKE     CLEAR     85  37  18 NE3       29.87R                  
EDWARDS AFB    CLEAR     74  27  17 SW9       29.91R                  
MOJAVE         CLEAR     81  43  26 W15G24    29.94R                  
NEEDLES        CLEAR     95  21   7 W13       29.74F                  
VICTORVILLE    CLEAR     73  37  27 SW8       29.98S                  

$$

CAZ039-040-240700-
VENTURA AND SANTA BARBARA COUNTY COAST

  
CITY           SKY/WX    TMP DP  RH WIND       PRES   REMARKS
CAMARILLO      CLEAR     57  53  86 NW3       29.91S                  
NWS OXNARD       N/A     56  52  87 CALM      29.90S                  
OXNARD AIRPORT MOCLDY    57  54  89 W5        29.91S                  
*POINT MUGU    PTCLDY    55  54  96 CALM      29.92S                  
SBA APT/GOLETA CLEAR     56  55  97 E6        29.90R                  
*SANTA BARBARA   N/A     58  53  81 CALM      29.98R                  
*VENTURA         N/A     56  53  89 CALM      29.89S                  

$$

CAZ044-045-240700-
VENTURA COUNTY VALLEYS

  
CITY           SKY/WX    TMP DP  RH WIND       PRES   REMARKS
*SIMI VALLEY     N/A     61  51  70 CALM      29.84S                  
*WESTLAKE VILL   N/A     56  49  76 CALM      29.87S                  
*OJAI            N/A     59  52  76 CALM      29.83S                  
*FILLMORE        N/A     55  52  90 CALM      29.94S                  

$$

CAZ053-240700-
VENTURA COUNTY MOUNTAINS

  
CITY           SKY/WX    TMP DP  RH WIND       PRES   REMARKS

$$

CAZ034-035-036-240700-
CENTRAL COAST AND SANTA YNEZ VALLEY

  
CITY           SKY/WX    TMP DP  RH WIND       PRES   REMARKS
SAN LUIS OBISP MOCLDY    54  51  90 NW6       29.94S                  
SANTA MARIA    CLOUDY    53  53 100 CALM      29.94F FOG              

CITY           SKY/WX    TMP DP  RH WIND       PRES   REMARKS
*CAL POLY SLO    N/A     54  54 100 W3G12       N/A                   
*LOMPOC        CLOUDY    54  51  90 CALM      29.94F                  
*PISMO BEACH     N/A     55  52  91 CALM      29.94F                  
*SANTA YNEZ    FAIR      50  48  93 CALM      29.94S                  

$$

CAZ037-038-051-240700-
SAN LUIS OBISPO COUNTY INTERIOR AND CUYAMA VALLEY

  
CITY           SKY/WX    TMP DP  RH WIND       PRES   REMARKS
*CUYAMA          N/A     71  39  31 CALM      29.84S                  
PASO ROBLES    PTCLDY    62  50  64 W5        29.92R                  

$$

CAZ032-033-061-240700-
SOUTHERN DESERTS

  
CITY           SKY/WX    TMP DP  RH WIND       PRES   REMARKS
BLYTHE         CLEAR     94  30  10 W13       29.73S                  
IMPERIAL       CLEAR     85  43  22 W10       29.72S                  
PALM SPRINGS   CLEAR     93  38  14 CALM      29.77R                  
THERMAL        CLEAR     93  39  15 N12       29.70S                  

$$

ELSEWHERE ACROSS THE WESTERN UNITED STATES AND MEXICO

  
CITY           SKY/WX    TMP DP  RH WIND       PRES   REMARKS
DENVER, CO     PTCLDY    50  31  48 SE3       30.07F                  
GRAND CANYON,  CLEAR     43  27  53 E3        30.20F                  
HONOLULU, HI   LGT RAIN  75  67  76 SE9       30.05R                  
KAHULUI, MAUI  MOCLDY    75  65  70 NE13G22   30.03R                  
LAKE TAHOE, CA CLEAR     54  42  64 SW5       30.20S                  
LAS VEGAS, NV  CLEAR     88  22   9 SW3       29.82F                  
MAMMOTH LAKES, FAIR      60  33  36 CALM      30.24S                  
MEXICO CITY, M PTCLDY    70  55  60 S2        30.23F                  
PHOENIX, AZ    PTCLDY    90  27  10 CALM      29.75S                  
PORTLAND, OR   MOCLDY    55  42  61 NW14      30.11R                  
RENO, NV       CLEAR     76  37  24 CALM      30.05R                  
SALT LAKE CITY CLEAR     67  39  35 SE8       29.97F                  
SAN DIEGO, CA  MOCLDY    63  59  87 NW7       29.95R                  
SAN FRANCISCO, PTCLDY    54  50  86 W15       29.93R                  
SAN JOSE, CA   PTCLDY    60  55  83 W7        29.92S                  
SEATTLE, WA    MOCLDY    55  43  63 SW7       30.04R                  
TIJUANA, MEX   FOG       59  55  88 CALM      29.95R VSB 1            

$$
  
STATION/POSITION TIME  TEMP    WIND        PRES    VSBY  WAVE
                       AIR SEA DIR/SP/G                  HT/PER
                 (UTC) (F)     (DEG/KT/KT) (MB)    (MI)  (FT/S)
POINT ARGUELLO B NOT AVBL
WEST SANTA BARBA 0550   52 54  300/ 21/ 25 1012.5R         5/15
POINT CONCEPTION NOT AVBL
EAST SANTA BARBA 0550          240/ 16/ 17 1013.0R
SANTA MONICA BAY 0550   60 63  260/  6/  6 1012.8R         4/15

Return to Home page


Western Regional Climate Center, wrcc@dri.edu